Location: Dumbr?vi?a
(45.8833°N, 22.7000°E)
Time: 16:57:37
(UTC+00:00)

Meteor 1-11 Rocket - Pass Details

Date: 03 March 2021
Orbit: 831 x 916 km, 81.2° (Epoch: 15 April)

Event Time Altitude Azimuth Distance (km) Brightness Sun altitude
Rises 17:40:56 0° 164° (SSE) 3,467 6.7 -15.1°
Reaches altitude 10° 17:43:33 10° 157° (SSE) 2,519 5.9 -15.5°
Maximum altitude 17:48:45 37° 91° (E) 1,310 4.2 -16.4°
Drops below altitude 10° 17:53:52 10° 26° (NNE) 2,485 6.0 -17.3°
Sets 17:56:25 0° 19° (NNE) 3,414 6.8 -17.8°
